Year,Month,Day,Hour,Minute,Value (Times are PST for temperature in C)
2009,06,28,00,00,10.60
2009,06,28,00,01,10.50
2009,06,28,00,02,10.50
2009,06,28,00,03,10.60
2009,06,28,00,04,10.50
2009,06,28,00,05,10.50
2009,06,28,00,06,10.50
2009,06,28,00,07,10.50
2009,06,28,00,08,10.50
2009,06,28,00,09,10.50
2009,06,28,00,10,10.50
2009,06,28,00,11,10.50
2009,06,28,00,12,10.40
2009,06,28,00,13,10.40
2009,06,28,00,14,10.40
2009,06,28,00,15,10.40
2009,06,28,00,16,10.40
2009,06,28,00,17,10.40
2009,06,28,00,18,10.30
2009,06,28,00,19,10.30
2009,06,28,00,20,10.20
2009,06,28,00,21,10.20
2009,06,28,00,22,10.20
2009,06,28,00,23,10.10
2009,06,28,00,24,10.10
2009,06,28,00,25,10.10
2009,06,28,00,26,10.20
2009,06,28,00,27,10.20
2009,06,28,00,28,10.10
2009,06,28,00,29,10.10
2009,06,28,00,30,10.10
2009,06,28,00,31,10.10
2009,06,28,00,32,10.00
2009,06,28,00,33,9.90
2009,06,28,00,34,9.90
2009,06,28,00,35,9.80
2009,06,28,00,36,9.80
2009,06,28,00,37,9.80
2009,06,28,00,38,9.90
2009,06,28,00,39,9.90
2009,06,28,00,40,9.90
2009,06,28,00,41,9.90
2009,06,28,00,42,9.80
2009,06,28,00,43,9.80
2009,06,28,00,44,9.70
2009,06,28,00,45,9.70
2009,06,28,00,46,9.60
2009,06,28,00,47,9.60
2009,06,28,00,48,9.60
2009,06,28,00,49,9.60
2009,06,28,00,50,9.60
2009,06,28,00,51,9.70
2009,06,28,00,52,9.80
2009,06,28,00,53,9.90
2009,06,28,00,54,9.90
2009,06,28,00,55,9.90
2009,06,28,00,56,9.90
2009,06,28,00,57,9.80
2009,06,28,00,58,9.80
2009,06,28,00,59,9.80
2009,06,28,01,00,9.80
2009,06,28,01,01,9.80
2009,06,28,01,02,9.80
2009,06,28,01,03,9.90
2009,06,28,01,04,9.90
2009,06,28,01,05,9.90
2009,06,28,01,06,9.90
2009,06,28,01,07,9.80
2009,06,28,01,08,9.80
2009,06,28,01,09,9.80
2009,06,28,01,10,9.80
2009,06,28,01,11,9.80
2009,06,28,01,12,9.80
2009,06,28,01,13,9.80
2009,06,28,01,14,9.70
2009,06,28,01,15,9.60
2009,06,28,01,16,9.60
2009,06,28,01,17,9.50
2009,06,28,01,18,9.40
2009,06,28,01,19,9.40
2009,06,28,01,20,9.30
2009,06,28,01,21,9.30
2009,06,28,01,22,9.30
2009,06,28,01,23,9.40
2009,06,28,01,24,9.40
2009,06,28,01,25,9.40
2009,06,28,01,26,9.40
2009,06,28,01,27,9.40
2009,06,28,01,28,9.40
2009,06,28,01,29,9.40
2009,06,28,01,30,9.40
2009,06,28,01,31,9.40
2009,06,28,01,32,9.40
2009,06,28,01,33,9.40
2009,06,28,01,34,9.40
2009,06,28,01,35,9.30
2009,06,28,01,36,9.30
2009,06,28,01,37,9.20
2009,06,28,01,38,9.20
2009,06,28,01,39,9.20
2009,06,28,01,40,9.10
2009,06,28,01,41,9.10
2009,06,28,01,42,9.10
2009,06,28,01,43,9.10
2009,06,28,01,44,9.00
2009,06,28,01,45,9.00
2009,06,28,01,46,9.00
2009,06,28,01,47,8.90
2009,06,28,01,48,8.90
2009,06,28,01,49,8.90
2009,06,28,01,50,8.90
2009,06,28,01,51,8.90
2009,06,28,01,52,8.90
2009,06,28,01,53,8.90
2009,06,28,01,54,8.80
2009,06,28,01,55,8.80
2009,06,28,01,56,8.80
2009,06,28,01,57,8.90
2009,06,28,01,58,8.90
2009,06,28,01,59,8.90
2009,06,28,02,00,8.90
2009,06,28,02,01,8.90
2009,06,28,02,02,8.90
2009,06,28,02,03,8.90
2009,06,28,02,04,8.90
2009,06,28,02,05,8.90
2009,06,28,02,06,8.90
2009,06,28,02,07,8.90
2009,06,28,02,08,8.90
2009,06,28,02,09,8.80
2009,06,28,02,10,8.80
2009,06,28,02,11,8.80
2009,06,28,02,12,8.80
2009,06,28,02,13,8.80
2009,06,28,02,14,8.90
2009,06,28,02,15,8.90
2009,06,28,02,16,9.00
2009,06,28,02,17,9.00
2009,06,28,02,18,9.10
2009,06,28,02,19,9.10
2009,06,28,02,20,9.00
2009,06,28,02,21,9.00
2009,06,28,02,22,8.90
2009,06,28,02,23,8.90
2009,06,28,02,24,8.80
2009,06,28,02,25,8.80
2009,06,28,02,26,8.80
2009,06,28,02,27,8.80
2009,06,28,02,28,8.80
2009,06,28,02,29,8.70
2009,06,28,02,30,8.70
2009,06,28,02,31,8.60
2009,06,28,02,32,8.50
2009,06,28,02,33,8.40
2009,06,28,02,34,8.30
2009,06,28,02,35,8.30
2009,06,28,02,36,8.30
2009,06,28,02,37,8.20
2009,06,28,02,38,8.20
2009,06,28,02,39,8.20
2009,06,28,02,40,8.20
2009,06,28,02,41,8.20
2009,06,28,02,42,8.20
2009,06,28,02,43,8.20
2009,06,28,02,44,8.20
2009,06,28,02,45,8.20
2009,06,28,02,46,8.20
2009,06,28,02,47,8.10
2009,06,28,02,48,8.10
2009,06,28,02,49,8.20
2009,06,28,02,50,8.20
2009,06,28,02,51,8.20
2009,06,28,02,52,8.10
2009,06,28,02,53,8.20
2009,06,28,02,54,8.20
2009,06,28,02,55,8.20
2009,06,28,02,56,8.20
2009,06,28,02,57,8.20
2009,06,28,02,58,8.20
2009,06,28,02,59,8.20
2009,06,28,03,00,8.10
2009,06,28,03,01,8.00
2009,06,28,03,02,7.90
2009,06,28,03,03,7.90
2009,06,28,03,04,7.80
2009,06,28,03,05,7.80
2009,06,28,03,06,7.80
2009,06,28,03,07,7.80
2009,06,28,03,08,7.90
2009,06,28,03,09,7.90
2009,06,28,03,10,7.90
2009,06,28,03,11,7.80
2009,06,28,03,12,7.80
2009,06,28,03,13,7.90
2009,06,28,03,14,7.90
2009,06,28,03,15,7.80
2009,06,28,03,16,7.90
2009,06,28,03,17,7.90
2009,06,28,03,18,7.90
2009,06,28,03,19,7.90
2009,06,28,03,20,7.90
2009,06,28,03,21,7.90
2009,06,28,03,22,7.90
2009,06,28,03,23,8.00
2009,06,28,03,24,8.00
2009,06,28,03,25,8.00
2009,06,28,03,26,7.90
2009,06,28,03,27,8.00
2009,06,28,03,28,7.90
2009,06,28,03,29,7.90
2009,06,28,03,30,7.80
2009,06,28,03,31,7.80
2009,06,28,03,32,7.90
2009,06,28,03,33,7.90
2009,06,28,03,34,7.90
2009,06,28,03,35,7.90
2009,06,28,03,36,7.90
2009,06,28,03,37,7.90
2009,06,28,03,38,7.90
2009,06,28,03,39,7.90
2009,06,28,03,40,7.90
2009,06,28,03,41,8.00
2009,06,28,03,42,8.10
2009,06,28,03,43,8.20
2009,06,28,03,44,8.20
2009,06,28,03,45,8.20
2009,06,28,03,46,8.20
2009,06,28,03,47,8.20
2009,06,28,03,48,8.20
2009,06,28,03,49,8.20
2009,06,28,03,50,8.20
2009,06,28,03,51,8.10
2009,06,28,03,52,8.20
2009,06,28,03,53,8.20
2009,06,28,03,54,8.20
2009,06,28,03,55,8.20
2009,06,28,03,56,8.20
2009,06,28,03,57,8.20
2009,06,28,03,58,8.20
2009,06,28,03,59,8.20
2009,06,28,04,00,8.20
2009,06,28,04,01,8.20
2009,06,28,04,02,8.30
2009,06,28,04,03,8.30
2009,06,28,04,04,8.30
2009,06,28,04,05,8.30
2009,06,28,04,06,8.30
2009,06,28,04,07,8.20
2009,06,28,04,08,8.30
2009,06,28,04,09,8.30
2009,06,28,04,10,8.30
2009,06,28,04,11,8.30
2009,06,28,04,12,8.30
2009,06,28,04,13,8.40
2009,06,28,04,14,8.40
2009,06,28,04,15,8.50
2009,06,28,04,16,8.50
2009,06,28,04,17,8.50
2009,06,28,04,18,8.50
2009,06,28,04,19,8.50
2009,06,28,04,20,8.60
2009,06,28,04,21,8.60
2009,06,28,04,22,8.60
2009,06,28,04,23,8.60
2009,06,28,04,24,8.60
2009,06,28,04,25,8.60
2009,06,28,04,26,8.60
2009,06,28,04,27,8.60
2009,06,28,04,28,8.70
2009,06,28,04,29,8.70
2009,06,28,04,30,8.70
2009,06,28,04,31,8.70
2009,06,28,04,32,8.70
2009,06,28,04,33,8.70
2009,06,28,04,34,8.70
2009,06,28,04,35,8.70
2009,06,28,04,36,8.70
2009,06,28,04,37,8.70
2009,06,28,04,38,8.70
2009,06,28,04,39,8.70
2009,06,28,04,40,8.70
2009,06,28,04,41,8.70
2009,06,28,04,42,8.70
2009,06,28,04,43,8.70
2009,06,28,04,44,8.70
2009,06,28,04,45,8.70
2009,06,28,04,46,8.70
2009,06,28,04,47,8.70
2009,06,28,04,48,8.70
2009,06,28,04,49,8.80
2009,06,28,04,50,8.80
2009,06,28,04,51,8.80
2009,06,28,04,52,8.80
2009,06,28,04,53,8.90
2009,06,28,04,54,8.90
2009,06,28,04,55,9.00
2009,06,28,04,56,9.00
2009,06,28,04,57,9.10
2009,06,28,04,58,9.10
2009,06,28,04,59,9.10
2009,06,28,05,00,9.10
2009,06,28,05,01,9.10
2009,06,28,05,02,9.10
2009,06,28,05,03,9.00
2009,06,28,05,04,9.00
2009,06,28,05,05,9.00
2009,06,28,05,06,9.00
2009,06,28,05,07,9.10
2009,06,28,05,08,9.10
2009,06,28,05,09,9.10
2009,06,28,05,10,9.10
2009,06,28,05,11,9.10
2009,06,28,05,12,9.10
2009,06,28,05,13,9.10
2009,06,28,05,14,9.10
2009,06,28,05,15,9.10
2009,06,28,05,16,9.10
2009,06,28,05,17,9.20
2009,06,28,05,18,9.20
2009,06,28,05,19,9.20
2009,06,28,05,20,9.20
2009,06,28,05,21,9.10
2009,06,28,05,22,9.10
2009,06,28,05,23,9.10
2009,06,28,05,24,9.10
2009,06,28,05,25,9.10
2009,06,28,05,26,9.00
2009,06,28,05,27,8.90
2009,06,28,05,28,8.90
2009,06,28,05,29,8.80
2009,06,28,05,30,8.70
2009,06,28,05,31,8.70
2009,06,28,05,32,8.70
2009,06,28,05,33,8.60
2009,06,28,05,34,8.50
2009,06,28,05,35,8.40
2009,06,28,05,36,8.40
2009,06,28,05,37,8.50
2009,06,28,05,38,8.40
2009,06,28,05,39,8.40
2009,06,28,05,40,8.40
2009,06,28,05,41,8.40
2009,06,28,05,42,8.40
2009,06,28,05,43,8.40
2009,06,28,05,44,8.40
2009,06,28,05,45,8.40
2009,06,28,05,46,8.50
2009,06,28,05,47,8.50
2009,06,28,05,48,8.50
2009,06,28,05,49,8.50
2009,06,28,05,50,8.60
2009,06,28,05,51,8.70
2009,06,28,05,52,8.70
2009,06,28,05,53,8.80
2009,06,28,05,54,8.80
2009,06,28,05,55,8.90
2009,06,28,05,56,8.90
2009,06,28,05,57,9.00
2009,06,28,05,58,9.00
2009,06,28,05,59,9.10
2009,06,28,06,00,9.10
2009,06,28,06,01,9.00
2009,06,28,06,02,9.00
2009,06,28,06,03,9.00
2009,06,28,06,04,9.10
2009,06,28,06,05,9.10
2009,06,28,06,06,9.10
2009,06,28,06,07,9.10
2009,06,28,06,08,9.00
2009,06,28,06,09,9.00
2009,06,28,06,10,9.00
2009,06,28,06,11,9.00
2009,06,28,06,12,9.00
2009,06,28,06,13,8.90
2009,06,28,06,14,8.90
2009,06,28,06,15,8.90
2009,06,28,06,16,9.00
2009,06,28,06,17,9.10
2009,06,28,06,18,9.20
2009,06,28,06,19,9.30
2009,06,28,06,20,9.40
2009,06,28,06,21,9.50
2009,06,28,06,22,9.60
2009,06,28,06,23,9.70
2009,06,28,06,24,9.70
2009,06,28,06,25,9.80
2009,06,28,06,26,9.70
2009,06,28,06,27,9.70
2009,06,28,06,28,9.60
2009,06,28,06,29,9.50
2009,06,28,06,30,9.40
2009,06,28,06,31,9.30
2009,06,28,06,32,9.30
2009,06,28,06,33,9.30
2009,06,28,06,34,9.30
2009,06,28,06,35,9.00
2009,06,28,06,36,8.90
2009,06,28,06,37,8.80
2009,06,28,06,38,8.80
2009,06,28,06,39,8.70
2009,06,28,06,40,8.70
2009,06,28,06,41,8.80
2009,06,28,06,42,8.90
2009,06,28,06,43,8.90
2009,06,28,06,44,9.00
2009,06,28,06,45,9.00
2009,06,28,06,46,9.10
2009,06,28,06,47,9.10
2009,06,28,06,48,9.20
2009,06,28,06,49,9.10
2009,06,28,06,50,9.10
2009,06,28,06,51,9.20
2009,06,28,06,52,9.30
2009,06,28,06,53,9.30
2009,06,28,06,54,9.40
2009,06,28,06,55,9.50
2009,06,28,06,56,9.60
2009,06,28,06,57,9.60
2009,06,28,06,58,9.70
2009,06,28,06,59,9.70
2009,06,28,07,00,9.80
2009,06,28,07,01,9.90
2009,06,28,07,02,9.90
2009,06,28,07,03,10.00
2009,06,28,07,04,10.00
2009,06,28,07,05,10.10
2009,06,28,07,06,10.10
2009,06,28,07,07,10.10
2009,06,28,07,08,10.10
2009,06,28,07,09,10.10
2009,06,28,07,10,10.10
2009,06,28,07,11,10.10
2009,06,28,07,12,10.20
2009,06,28,07,13,10.20
2009,06,28,07,14,10.20
2009,06,28,07,15,10.20
2009,06,28,07,16,10.30
2009,06,28,07,17,10.30
2009,06,28,07,18,10.30
2009,06,28,07,19,10.30
2009,06,28,07,20,10.40
2009,06,28,07,21,10.40
2009,06,28,07,22,10.40
2009,06,28,07,23,10.50
2009,06,28,07,24,10.50
2009,06,28,07,25,10.60
2009,06,28,07,26,10.60
2009,06,28,07,27,10.60
2009,06,28,07,28,10.70
2009,06,28,07,29,10.70
2009,06,28,07,30,10.70
2009,06,28,07,31,10.80
2009,06,28,07,32,10.80
2009,06,28,07,33,10.90
2009,06,28,07,34,10.90
2009,06,28,07,35,11.00
2009,06,28,07,36,11.10
2009,06,28,07,37,11.10
2009,06,28,07,38,11.20
2009,06,28,07,39,11.30
2009,06,28,07,40,11.30
2009,06,28,07,41,11.40
2009,06,28,07,42,11.50
2009,06,28,07,43,11.60
2009,06,28,07,44,11.70
2009,06,28,07,45,11.70
2009,06,28,07,46,11.80
2009,06,28,07,47,11.90
2009,06,28,07,48,11.90
2009,06,28,07,49,11.90
2009,06,28,07,50,12.00
2009,06,28,07,51,12.00
2009,06,28,07,52,12.10
2009,06,28,07,53,12.10
2009,06,28,07,54,12.20
2009,06,28,07,55,12.20
2009,06,28,07,56,12.30
2009,06,28,07,57,12.30
2009,06,28,07,58,12.40
2009,06,28,07,59,12.50
2009,06,28,08,00,12.50
2009,06,28,08,01,12.60
2009,06,28,08,02,12.60
2009,06,28,08,03,12.70
2009,06,28,08,04,12.70
2009,06,28,08,05,12.80
2009,06,28,08,06,12.80
2009,06,28,08,07,12.80
2009,06,28,08,08,12.90
2009,06,28,08,09,13.00
2009,06,28,08,10,13.00
2009,06,28,08,11,13.10
2009,06,28,08,12,13.10
2009,06,28,08,13,13.20
2009,06,28,08,14,13.20
2009,06,28,08,15,13.20
2009,06,28,08,16,13.20
2009,06,28,08,17,13.20
2009,06,28,08,18,13.20
2009,06,28,08,19,13.30
2009,06,28,08,20,13.30
2009,06,28,08,21,13.30
2009,06,28,08,22,13.30
2009,06,28,08,23,13.30
2009,06,28,08,24,13.30
2009,06,28,08,25,13.30
2009,06,28,08,26,13.40
2009,06,28,08,27,13.40
2009,06,28,08,28,13.40
2009,06,28,08,29,13.40
2009,06,28,08,30,13.40
2009,06,28,08,31,13.50
2009,06,28,08,32,13.50
2009,06,28,08,33,13.60
2009,06,28,08,34,13.70
2009,06,28,08,35,13.70
2009,06,28,08,36,13.80
2009,06,28,08,37,13.90
2009,06,28,08,38,13.90
2009,06,28,08,39,14.00
2009,06,28,08,40,14.00
2009,06,28,08,41,14.10
2009,06,28,08,42,14.20
2009,06,28,08,43,14.20
2009,06,28,08,44,14.30
2009,06,28,08,45,14.30
2009,06,28,08,46,14.20
2009,06,28,08,47,14.30
2009,06,28,08,48,14.20
2009,06,28,08,49,14.20
2009,06,28,08,50,14.20
2009,06,28,08,51,14.20
2009,06,28,08,52,14.20
2009,06,28,08,53,14.20
2009,06,28,08,54,14.10
2009,06,28,08,55,14.20
2009,06,28,08,56,14.20
2009,06,28,08,57,14.20
2009,06,28,08,58,14.20
2009,06,28,08,59,14.30
2009,06,28,09,00,14.30
2009,06,28,09,01,14.30
2009,06,28,09,02,14.40
2009,06,28,09,03,14.40
2009,06,28,09,04,14.40
2009,06,28,09,05,14.40
2009,06,28,09,06,14.50
2009,06,28,09,07,14.50
2009,06,28,09,08,14.60
2009,06,28,09,09,14.60
2009,06,28,09,10,14.50
2009,06,28,09,11,14.50
2009,06,28,09,12,14.40
2009,06,28,09,13,14.30
2009,06,28,09,14,14.20
2009,06,28,09,15,14.20
2009,06,28,09,16,14.20
2009,06,28,09,17,14.20
2009,06,28,09,18,14.20
2009,06,28,09,19,14.10
2009,06,28,09,20,14.10
2009,06,28,09,21,14.10
2009,06,28,09,22,14.20
2009,06,28,09,23,14.20
2009,06,28,09,24,14.30
2009,06,28,09,25,14.30
2009,06,28,09,26,14.30
2009,06,28,09,27,14.40
2009,06,28,09,28,14.40
2009,06,28,09,29,14.40
2009,06,28,09,30,14.40
2009,06,28,09,31,14.40
2009,06,28,09,32,14.40
2009,06,28,09,33,14.40
2009,06,28,09,34,14.40
2009,06,28,09,35,14.40
2009,06,28,09,36,14.40
2009,06,28,09,37,14.40
2009,06,28,09,38,14.50
2009,06,28,09,39,14.50
2009,06,28,09,40,14.50
2009,06,28,09,41,14.50
2009,06,28,09,42,14.50
2009,06,28,09,43,14.60
2009,06,28,09,44,14.50
2009,06,28,09,45,14.50
2009,06,28,09,46,14.60
2009,06,28,09,47,14.70
2009,06,28,09,48,14.80
2009,06,28,09,49,14.90
2009,06,28,09,50,14.90
2009,06,28,09,51,14.90
2009,06,28,09,52,15.00
2009,06,28,09,53,15.00
2009,06,28,09,54,15.00
2009,06,28,09,55,15.00
2009,06,28,09,56,15.00
2009,06,28,09,57,14.80
2009,06,28,09,58,14.80
2009,06,28,09,59,14.80
2009,06,28,10,00,14.70
2009,06,28,10,01,14.60
2009,06,28,10,02,14.60
2009,06,28,10,03,14.60
2009,06,28,10,04,14.60
2009,06,28,10,05,14.60
2009,06,28,10,06,14.50
2009,06,28,10,07,14.50
2009,06,28,10,08,14.40
2009,06,28,10,09,14.30
2009,06,28,10,10,14.30
2009,06,28,10,11,14.20
2009,06,28,10,12,14.20
2009,06,28,10,13,14.20
2009,06,28,10,14,14.20
2009,06,28,10,15,14.10
2009,06,28,10,16,14.10
2009,06,28,10,17,14.10
2009,06,28,10,18,14.20
2009,06,28,10,19,14.20
2009,06,28,10,20,14.20
2009,06,28,10,21,14.20
2009,06,28,10,22,14.20
2009,06,28,10,23,14.20
2009,06,28,10,24,14.30
2009,06,28,10,25,14.30
2009,06,28,10,26,14.30
2009,06,28,10,27,14.30
2009,06,28,10,28,14.30
2009,06,28,10,29,14.30
2009,06,28,10,30,14.20
2009,06,28,10,31,14.10
2009,06,28,10,32,14.10
2009,06,28,10,33,14.10
2009,06,28,10,34,14.20
2009,06,28,10,35,14.40
2009,06,28,10,36,14.50
2009,06,28,10,37,14.50
2009,06,28,10,38,14.60
2009,06,28,10,39,14.70
2009,06,28,10,40,14.80
2009,06,28,10,41,14.80
2009,06,28,10,42,14.80
2009,06,28,10,43,14.70
2009,06,28,10,44,14.60
2009,06,28,10,45,14.60
2009,06,28,10,46,14.60
2009,06,28,10,47,14.50
2009,06,28,10,48,14.50
2009,06,28,10,49,14.40
2009,06,28,10,50,14.50
2009,06,28,10,51,14.50
2009,06,28,10,52,14.50
2009,06,28,10,53,14.50
2009,06,28,10,54,14.40
2009,06,28,10,55,14.40
2009,06,28,10,56,14.40
2009,06,28,10,57,14.40
2009,06,28,10,58,14.40
2009,06,28,10,59,14.50
2009,06,28,11,00,14.60
2009,06,28,11,01,14.80
2009,06,28,11,02,15.00
2009,06,28,11,03,15.00
2009,06,28,11,04,15.00
2009,06,28,11,05,14.90
2009,06,28,11,06,14.80
2009,06,28,11,07,14.80
2009,06,28,11,08,14.80
2009,06,28,11,09,14.80
2009,06,28,11,10,14.80
2009,06,28,11,11,14.70
2009,06,28,11,12,14.70
2009,06,28,11,13,14.80
2009,06,28,11,14,14.90
2009,06,28,11,15,15.00
2009,06,28,11,16,15.00
2009,06,28,11,17,15.00
2009,06,28,11,18,15.00
2009,06,28,11,19,14.90
2009,06,28,11,20,14.90
2009,06,28,11,21,14.90
2009,06,28,11,22,14.80
2009,06,28,11,23,14.80
2009,06,28,11,24,14.80
2009,06,28,11,25,14.80
2009,06,28,11,26,14.80
2009,06,28,11,27,14.70
2009,06,28,11,28,14.60
2009,06,28,11,29,14.60
2009,06,28,11,30,14.60
2009,06,28,11,31,14.50
2009,06,28,11,32,14.40
2009,06,28,11,33,14.50
2009,06,28,11,34,14.50
2009,06,28,11,35,14.60
2009,06,28,11,36,14.60
2009,06,28,11,37,14.70
2009,06,28,11,38,14.70
2009,06,28,11,39,14.70
2009,06,28,11,40,14.70
2009,06,28,11,41,14.70
2009,06,28,11,42,14.60
2009,06,28,11,43,14.60
2009,06,28,11,44,14.60
2009,06,28,11,45,14.60
2009,06,28,11,46,14.70
2009,06,28,11,47,14.70
2009,06,28,11,48,14.80
2009,06,28,11,49,14.80
2009,06,28,11,50,14.70
2009,06,28,11,51,14.70
2009,06,28,11,52,14.80
2009,06,28,11,53,14.90
2009,06,28,11,54,15.00
2009,06,28,11,55,15.00
2009,06,28,11,56,15.00
2009,06,28,11,57,15.00
2009,06,28,11,58,14.80
2009,06,28,11,59,14.80
2009,06,28,12,00,14.80
2009,06,28,12,01,14.80
2009,06,28,12,02,14.70
2009,06,28,12,03,14.70
2009,06,28,12,04,14.70
2009,06,28,12,05,14.70
2009,06,28,12,06,14.70
2009,06,28,12,07,14.60
2009,06,28,12,08,14.50
2009,06,28,12,09,14.40
2009,06,28,12,10,14.40
2009,06,28,12,11,14.50
2009,06,28,12,12,14.60
2009,06,28,12,13,14.70
2009,06,28,12,14,14.80
2009,06,28,12,15,15.00
2009,06,28,12,16,15.00
2009,06,28,12,17,15.00
2009,06,28,12,18,15.00
2009,06,28,12,19,15.00
2009,06,28,12,20,14.90
2009,06,28,12,21,14.80
2009,06,28,12,22,14.80
2009,06,28,12,23,14.90
2009,06,28,12,24,15.00
2009,06,28,12,25,15.00
2009,06,28,12,26,15.00
2009,06,28,12,27,15.10
2009,06,28,12,28,15.10
2009,06,28,12,29,15.10
2009,06,28,12,30,15.10
2009,06,28,12,31,15.10
2009,06,28,12,32,15.00
2009,06,28,12,33,15.00
2009,06,28,12,34,15.00
2009,06,28,12,35,15.00
2009,06,28,12,36,15.00
2009,06,28,12,37,15.00
2009,06,28,12,38,15.00
2009,06,28,12,39,15.00
2009,06,28,12,40,15.00
2009,06,28,12,41,15.00
2009,06,28,12,42,15.00
2009,06,28,12,43,15.00
2009,06,28,12,44,15.00
2009,06,28,12,45,15.00
2009,06,28,12,46,15.00
2009,06,28,12,47,15.00
2009,06,28,12,48,15.00
2009,06,28,12,49,15.10
2009,06,28,12,50,15.20
2009,06,28,12,51,15.30
2009,06,28,12,52,15.40
2009,06,28,12,53,15.50
2009,06,28,12,54,15.60
2009,06,28,12,55,15.70
2009,06,28,12,56,15.60
2009,06,28,12,57,15.60
2009,06,28,12,58,15.50
2009,06,28,12,59,15.50
2009,06,28,13,00,15.50
2009,06,28,13,01,15.60
2009,06,28,13,02,15.60
2009,06,28,13,03,15.60
2009,06,28,13,04,15.60
2009,06,28,13,05,15.50
2009,06,28,13,06,15.50
2009,06,28,13,07,15.40
2009,06,28,13,08,15.50
2009,06,28,13,09,15.60
2009,06,28,13,10,15.50
2009,06,28,13,11,15.40
2009,06,28,13,12,15.40
2009,06,28,13,13,15.30
2009,06,28,13,14,15.30
2009,06,28,13,15,15.30
2009,06,28,13,16,15.30
2009,06,28,13,17,15.30
2009,06,28,13,18,15.30
2009,06,28,13,19,15.40
2009,06,28,13,20,15.50
2009,06,28,13,21,15.50
2009,06,28,13,22,15.60
2009,06,28,13,23,15.60
2009,06,28,13,24,15.60
2009,06,28,13,25,15.60
2009,06,28,13,26,15.60
2009,06,28,13,27,15.50
2009,06,28,13,28,15.40
2009,06,28,13,29,15.40
2009,06,28,13,30,15.50
2009,06,28,13,31,15.60
2009,06,28,13,32,15.70
2009,06,28,13,33,15.80
2009,06,28,13,34,15.80
2009,06,28,13,35,15.70
2009,06,28,13,36,15.60
2009,06,28,13,37,15.50
2009,06,28,13,38,15.50
2009,06,28,13,39,15.60
2009,06,28,13,40,15.60
2009,06,28,13,41,15.60
2009,06,28,13,42,15.50
2009,06,28,13,43,15.50
2009,06,28,13,44,15.60
2009,06,28,13,45,15.60
2009,06,28,13,46,15.70
2009,06,28,13,47,15.70
2009,06,28,13,48,15.80
2009,06,28,13,49,15.90
2009,06,28,13,50,15.90
2009,06,28,13,51,15.90
2009,06,28,13,52,15.90
2009,06,28,13,53,16.00
2009,06,28,13,54,16.00
2009,06,28,13,55,16.00
2009,06,28,13,56,16.00
2009,06,28,13,57,16.10
2009,06,28,13,58,16.10
2009,06,28,13,59,16.10
2009,06,28,14,00,16.10
2009,06,28,14,01,16.00
2009,06,28,14,02,16.00
2009,06,28,14,03,16.10
2009,06,28,14,04,16.10
2009,06,28,14,05,16.10
2009,06,28,14,06,16.20
2009,06,28,14,07,16.30
2009,06,28,14,08,16.30
2009,06,28,14,09,16.50
2009,06,28,14,10,16.60
2009,06,28,14,11,16.70
2009,06,28,14,12,16.70
2009,06,28,14,13,16.70
2009,06,28,14,14,16.80
2009,06,28,14,15,16.80
2009,06,28,14,16,16.90
2009,06,28,14,17,17.00
2009,06,28,14,18,17.10
2009,06,28,14,19,17.20
2009,06,28,14,20,17.20
2009,06,28,14,21,17.30
2009,06,28,14,22,17.30
2009,06,28,14,23,17.20
2009,06,28,14,24,17.10
2009,06,28,14,25,17.00
2009,06,28,14,26,17.10
2009,06,28,14,27,17.10
2009,06,28,14,28,17.00
2009,06,28,14,29,16.90
2009,06,28,14,30,16.80
2009,06,28,14,31,16.70
2009,06,28,14,32,16.60
2009,06,28,14,33,16.50
2009,06,28,14,34,16.40
2009,06,28,14,35,16.40
2009,06,28,14,36,16.30
2009,06,28,14,37,16.30
2009,06,28,14,38,16.40
2009,06,28,14,39,16.40
2009,06,28,14,40,16.30
2009,06,28,14,41,16.30
2009,06,28,14,42,16.20
2009,06,28,14,43,16.20
2009,06,28,14,44,16.10
2009,06,28,14,45,16.10
2009,06,28,14,46,16.20
2009,06,28,14,47,16.20
2009,06,28,14,48,16.30
2009,06,28,14,49,16.40
2009,06,28,14,50,16.30
2009,06,28,14,51,16.30
2009,06,28,14,52,16.20
2009,06,28,14,53,16.20
2009,06,28,14,54,16.20
2009,06,28,14,55,16.30
2009,06,28,14,56,16.40
2009,06,28,14,57,16.60
2009,06,28,14,58,16.70
2009,06,28,14,59,16.80
2009,06,28,15,00,16.80
2009,06,28,15,01,16.60
2009,06,28,15,02,16.60
2009,06,28,15,03,16.60
2009,06,28,15,04,16.50
2009,06,28,15,05,16.50
2009,06,28,15,06,16.60
2009,06,28,15,07,16.60
2009,06,28,15,08,16.60
2009,06,28,15,09,16.60
2009,06,28,15,10,16.60
2009,06,28,15,11,16.70
2009,06,28,15,12,16.70
2009,06,28,15,13,16.70
2009,06,28,15,14,16.70
2009,06,28,15,15,16.60
2009,06,28,15,16,16.60
2009,06,28,15,17,16.60
2009,06,28,15,18,16.60
2009,06,28,15,19,16.60
2009,06,28,15,20,16.60
2009,06,28,15,21,16.60
2009,06,28,15,22,16.60
2009,06,28,15,23,16.50
2009,06,28,15,24,16.50
2009,06,28,15,25,16.50
2009,06,28,15,26,16.50
2009,06,28,15,27,16.60
2009,06,28,15,28,16.70
2009,06,28,15,29,16.70
2009,06,28,15,30,16.60
2009,06,28,15,31,16.60
2009,06,28,15,32,16.50
2009,06,28,15,33,16.60
2009,06,28,15,34,16.60
2009,06,28,15,35,16.70
2009,06,28,15,36,16.80
2009,06,28,15,37,16.90
2009,06,28,15,38,17.00
2009,06,28,15,39,17.10
2009,06,28,15,40,17.10
2009,06,28,15,41,17.20
2009,06,28,15,42,17.20
2009,06,28,15,43,17.20
2009,06,28,15,44,17.10
2009,06,28,15,45,17.00
2009,06,28,15,46,16.90
2009,06,28,15,47,16.90
2009,06,28,15,48,17.00
2009,06,28,15,49,17.10
2009,06,28,15,50,17.10
2009,06,28,15,51,17.10
2009,06,28,15,52,17.10
2009,06,28,15,53,17.00
2009,06,28,15,54,17.00
2009,06,28,15,55,17.10
2009,06,28,15,56,17.10
2009,06,28,15,57,17.10
2009,06,28,15,58,17.00
2009,06,28,15,59,16.90
2009,06,28,16,00,16.90
2009,06,28,16,01,16.90
2009,06,28,16,02,16.90
2009,06,28,16,03,16.90
2009,06,28,16,04,16.90
2009,06,28,16,05,16.90
2009,06,28,16,06,17.00
2009,06,28,16,07,16.90
2009,06,28,16,08,17.00
2009,06,28,16,09,17.00
2009,06,28,16,10,17.00
2009,06,28,16,11,17.10
2009,06,28,16,12,17.10
2009,06,28,16,13,17.00
2009,06,28,16,14,17.00
2009,06,28,16,15,17.10
2009,06,28,16,16,17.10
2009,06,28,16,17,17.00
2009,06,28,16,18,17.10
2009,06,28,16,19,17.10
2009,06,28,16,20,17.20
2009,06,28,16,21,17.20
2009,06,28,16,22,17.30
2009,06,28,16,23,17.30
2009,06,28,16,24,17.30
2009,06,28,16,25,17.30
2009,06,28,16,26,17.40
2009,06,28,16,27,17.40
2009,06,28,16,28,17.30
2009,06,28,16,29,17.30
2009,06,28,16,30,17.30
2009,06,28,16,31,17.30
2009,06,28,16,32,17.30
2009,06,28,16,33,17.30
2009,06,28,16,34,17.30
2009,06,28,16,35,17.30
2009,06,28,16,36,17.40
2009,06,28,16,37,17.50
2009,06,28,16,38,17.60
2009,06,28,16,39,17.60
2009,06,28,16,40,17.50
2009,06,28,16,41,17.40
2009,06,28,16,42,17.40
2009,06,28,16,43,17.40
2009,06,28,16,44,17.40
2009,06,28,16,45,17.40
2009,06,28,16,46,17.50
2009,06,28,16,47,17.60
2009,06,28,16,48,17.60
2009,06,28,16,49,17.60
2009,06,28,16,50,17.60
2009,06,28,16,51,17.60
2009,06,28,16,52,17.70
2009,06,28,16,53,17.80
2009,06,28,16,54,17.80
2009,06,28,16,55,17.70
2009,06,28,16,56,17.60
2009,06,28,16,57,17.60
2009,06,28,16,58,17.50
2009,06,28,16,59,17.40
2009,06,28,17,00,17.40
2009,06,28,17,01,17.30
2009,06,28,17,02,17.40
2009,06,28,17,03,17.40
2009,06,28,17,04,17.40
2009,06,28,17,05,17.30
2009,06,28,17,06,17.40
2009,06,28,17,07,17.40
2009,06,28,17,08,17.40
2009,06,28,17,09,17.40
2009,06,28,17,10,17.40
2009,06,28,17,11,17.40
2009,06,28,17,12,17.40
2009,06,28,17,13,17.40
2009,06,28,17,14,17.40
2009,06,28,17,15,17.40
2009,06,28,17,16,17.40
2009,06,28,17,17,17.30
2009,06,28,17,18,17.30
2009,06,28,17,19,17.30
2009,06,28,17,20,17.30
2009,06,28,17,21,17.30
2009,06,28,17,22,17.30
2009,06,28,17,23,17.40
2009,06,28,17,24,17.40
2009,06,28,17,25,17.40
2009,06,28,17,26,17.40
2009,06,28,17,27,17.40
2009,06,28,17,28,17.40
2009,06,28,17,29,17.40
2009,06,28,17,30,17.40
2009,06,28,17,31,17.40
2009,06,28,17,32,17.40
2009,06,28,17,33,17.40
2009,06,28,17,34,17.40
2009,06,28,17,35,17.50
2009,06,28,17,36,17.60